Temperature
16 16 15 15 15 15 15 15 15 15 15 15 15 14 14 14 14 14 14 14 14 14 13 13 13 13 13 13 13 13 12 12 13 12 12 12 12 11 12 11 11 11 11
16 16 15 15 15 15 15 15 15 15 15 15 15 15 14 14 14 14 14 14 14 14 13 13 13 13 13 13 12 12 12 12 12 12 12 12 11 11 11 11 11 11 11
16 16 15 15 15 15 15 15 15 15 15 15 15 15 15 14 14 14 14 14 14 14 13 13 13 13 13 12 12 12 12 12 12 12 12 11 11 11 11 11 11 11 11
16 16 15 15 15 15 15 15 15 15 15 15 15 15 15 14 14 14 14 14 14 13 13 13 13 13 13 12 12 12 12 12 12 12 11 11 11 11 11 11 11 11 10
16 16 16 15 16 15 15 15 15 15 15 15 14 14 15 15 14 14 14 14 13 13 13 13 13 13 13 12 12 12 12 12 12 11 11 11 11 11 11 11 10 10 10
16 16 16 15 15 15 15 15 15 15 15 14 14 14 14 14 14 14 14 13 13 13 13 13 13 13 13 13 12 12 12 12 11 11 11 11 11 10 10 10 10 10 10
16 16 16 15 15 15 15 15 15 15 15 14 14 14 14 14 14 14 14 13 13 13 13 13 12 12 12 12 12 12 12 12 12 11 11 11 10 10 10 10 10 10 9
16 16 16 16 15 15 15 15 15 15 15 15 14 14 14 14 14 14 14 13 13 13 13 12 12 12 12 12 12 12 11 11 11 11 11 10 10 10 10 10 10 9 9
16 16 16 16 16 15 15 15 15 15 14 14 14 14 14 14 14 14 13 13 13 13 12 12 12 12 12 12 12 11 11 11 11 11 11 11 11 11 10 10 9 9 9
16 16 16 16 16 16 15 15 15 15 14 14 14 14 14 14 14 13 13 13 13 12 12 12 12 12 12 12 12 11 11 11 11 10 10 10 10 10 10 9 9 8 8
16 16 16 16 16 15 15 15 15 14 14 14 14 14 14 13 13 13 13 13 12 12 12 12 12 12 12 12 11 11 11 11 10 10 10 10 10 9 9 9 9 9 8
16 16 16 16 15 15 15 15 14 14 14 14 14 14 13 13 13 13 13 13 12 12 12 12 12 12 12 11 11 11 11 11 10 10 10 10 9 9 9 9 9 9 8
16 16 16 15 15 15 15 15 14 14 14 14 13 13 13 13 13 13 13 13 12 12 12 12 12 12 11 11 11 11 11 10 10 10 9 9 9 9 9 9 9 8 8
16 16 15 15 15 15 14 14 14 14 14 13 13 13 13 13 13 13 12 12 12 12 12 11 11 11 11 11 11 10 10 10 9 9 9 9 9 8 8 8 8 7 7
15 15 15 15 14 14 14 14 14 14 14 13 13 13 13 13 13 13 12 12 12 12 11 11 11 11 10 10 10 10 10 9 9 9 8 8 8 8 8 7 7 7 7
15 14 14 14 14 14 14 14 13 13 13 13 13 13 13 13 13 12 12 12 11 11 11 11 10 10 10 10 9 9 9 9 9 8 8 8 8 7 7 7 7 6 6
15 14 14 14 14 13 13 13 13 13 13 13 13 12 12 12 12 12 12 11 11 11 10 10 10 10 9 9 9 9 9 9 9 8 8 8 7 7 6 6 6 6 6
14 14 14 14 13 13 13 12 12 12 12 12 12 12 12 12 12 11 11 11 11 10 10 10 10 9 9 9 9 9 8 8 8 8 8 7 7 7 6 6 6 5 5
14 14 14 13 13 13 12 12 12 12 12 11 11 11 11 11 11 11 11 10 10 10 10 10 9 9 9 9 8 8 8 8 8 7 7 7 7 6 6 6 5 5 5
14 14 13 13 13 12 12 12 12 11 11 11 11 11 11 10 10 10 10 10 10 9 9 9 9 9 8 8 8 8 7 7 7 7 6 6 6 6 5 5 5 4 4
13 13 13 13 12 12 12 12 11 11 11 11 11 11 11 10 10 10 10 10 9 9 9 9 8 8 8 8 7 7 7 7 6 6 6 6 5 5 5 5 4 4 4
13 12 12 12 12 12 12 11 11 11 11 10 10 10 10 10 10 9 9 9 9 9 8 8 8 8 8 7 7 7 6 6 6 6 5 5 5 5 4 4 4 4 3
12 12 12 12 11 11 11 11 10 10 10 10 10 10 10 9 9 9 9 8 8 8 8 8 7 7 7 7 6 6 6 6 6 5 5 5 4 4 4 4 4 3 3
11 11 11 11 11 11 10 10 10 10 9 9 9 9 9 9 9 8 8 8 8 8 8 7 7 7 7 6 6 6 6 5 5 5 5 4 4 4 4 4 3 3 2
11 10 10 10 10 10 10 9 9 9 9 9 9 9 9 8 8 8 8 8 7 7 7 7 7 6 6 6 6 5 5 5 5 5 4 4 4 3 3 3 2 2 2
10 10 10 9 9 9 9 9 9 8 8 8 8 8 8 8 8 8 7 7 7 7 6 6 6 6 6 5 5 5 5 5 4 4 4 4 3 3 3 2 2 2 1
Wind_Speed
9 8 7 6 6 5 4 4 4 3 3 3 2 2 1 1 2 2 1 1 1 1 1 1 1 1 1 1 1 1 2 2 2 2 1 1 2 3 3 4 3 3 2
9 8 8 7 6 6 5 5 5 4 4 3 3 2 2 1 1 2 2 2 1 1 1 1 1 1 1 1 1 1 1 2 3 3 2 2 2 3 3 3 3 3 3
9 8 8 7 7 6 5 5 5 5 4 4 3 3 2 2 2 2 2 2 1 1 0 0 1 1 1 1 1 1 1 1 2 3 3 2 2 3 3 3 3 3 4
9 9 8 8 6 6 5 5 5 5 5 4 4 3 3 3 2 2 2 2 2 1 1 1 1 1 2 2 1 2 1 1 2 2 2 2 2 3 3 4 4 3 4
9 9 8 8 6 5 5 5 5 4 5 4 4 4 3 2 2 2 3 2 2 2 1 1 1 1 3 3 2 2 2 2 2 2 3 3 3 3 3 3 4 4 4
10 9 8 8 7 6 5 5 5 4 4 4 4 4 3 3 2 2 3 3 3 2 2 2 2 2 2 3 2 3 3 3 3 3 3 4 4 4 4 4 5 5 4
9 9 8 8 8 7 6 6 6 6 5 5 4 4 4 3 4 4 4 4 3 3 3 2 2 1 3 3 4 5 4 3 4 5 4 5 5 4 5 5 5 5 6
9 9 9 8 8 7 7 6 6 6 6 5 5 4 3 3 5 5 5 5 4 3 3 3 3 2 2 3 3 3 3 2 3 4 4 4 4 4 5 5 6 6 6
9 9 9 9 8 8 7 7 7 6 6 5 5 4 4 4 5 5 5 4 4 4 3 3 3 3 2 2 4 3 3 2 1 2 3 3 4 4 5 4 4 5 5
9 9 9 9 9 9 8 7 6 6 5 5 5 5 5 4 5 6 6 4 4 4 3 3 2 2 0 2 4 3 3 3 3 2 3 4 4 3 4 5 4 5 5
9 8 8 8 9 8 7 6 6 6 5 5 5 4 5 4 6 7 7 4 4 4 3 3 2 3 3 3 5 4 3 4 4 3 3 3 3 3 3 4 4 4 5
8 8 8 8 7 7 7 6 6 6 6 5 5 4 3 4 4 6 7 6 5 5 4 3 2 4 4 4 4 2 2 4 3 3 3 3 3 3 3 4 5 6 6
8 8 8 8 7 7 7 7 6 6 5 5 5 4 4 3 4 5 6 7 6 5 3 1 1 4 5 4 4 4 4 3 3 3 4 3 3 4 4 4 5 6 7
9 8 8 8 7 7 6 6 6 6 6 5 5 5 4 4 4 4 4 5 6 6 4 3 5 5 5 3 3 4 4 3 4 4 4 4 4 4 4 4 4 5 5
8 8 7 7 7 6 6 5 6 6 6 6 5 5 5 4 4 4 4 4 5 4 4 4 3 3 3 3 3 3 3 3 4 4 4 4 4 4 4 4 4 5 6
7 7 6 6 6 6 5 4 3 3 3 4 3 3 3 2 2 5 5 4 4 5 4 4 4 4 4 4 4 3 3 4 4 4 4 4 5 5 5 4 5 5 6
7 7 6 6 6 6 6 5 4 3 3 4 4 4 3 2 3 4 4 4 5 7 5 4 4 4 4 4 4 4 4 4 4 4 4 4 4 5 5 5 5 6 6
7 6 6 6 6 6 6 6 5 5 4 3 4 5 5 4 4 4 5 5 3 5 5 5 5 4 4 4 4 4 4 4 4 4 4 4 5 5 5 6 6 7 7
6 5 5 5 5 5 5 5 5 5 5 4 3 3 4 4 4 5 6 4 4 4 5 5 4 4 4 4 4 4 4 4 4 4 4 4 4 5 5 6 6 6 7
4 5 5 5 5 5 5 5 5 5 5 5 5 4 3 3 3 4 4 4 4 4 4 4 4 4 4 3 3 3 4 4 4 4 4 5 5 5 6 7 6 7 7
4 5 6 5 5 5 5 6 5 5 5 5 4 3 4 4 4 4 4 4 4 4 3 3 3 3 3 3 3 4 4 4 4 4 5 5 5 5 5 6 6 6 6
4 4 5 5 5 5 5 5 5 5 5 5 4 4 6 4 3 3 3 3 3 3 3 3 3 3 3 3 4 4 4 4 4 4 5 5 5 5 6 6 6 6 6
4 4 4 4 4 4 5 5 5 5 5 5 4 4 4 4 4 3 3 3 2 2 2 2 3 3 3 3 4 4 4 4 4 5 5 5 5 5 5 6 7 8 7
3 4 4 4 4 4 5 4 4 4 4 4 4 4 4 4 3 3 3 2 2 2 2 2 3 3 4 3 3 4 4 5 6 6 6 6 6 6 6 6 7 8 8
3 3 3 4 4 4 4 4 4 4 4 4 4 4 4 4 4 4 3 3 3 3 3 3 3 3 4 4 4 3 4 4 5 6 6 6 6 6 6 7 7 8 8
2 3 3 3 3 3 4 4 4 4 4 4 3 3 3 3 3 3 3 3 3 3 3 3 4 4 4 4 4 3 3 4 4 6 6 5 5 6 6 6 8 7 8
Wind_Direction
189 189 187 189 190 196 194 188 186 186 183 180 162 152 148 154 151 150 155 141 123 108 96 62 43 13 2 355 321 312 311 309 302 329 339 357 336 338 351 339 334 333 25
188 188 186 185 189 196 194 192 192 189 184 181 171 169 158 160 171 171 167 169 163 128 86 56 48 55 359 341 317 316 323 312 304 314 315 330 325 328 332 322 328 333 338
185 187 186 188 193 197 198 196 194 188 182 180 182 185 181 181 185 192 191 184 181 174 148 14 348 343 321 332 292 304 311 312 301 296 311 325 306 315 313 312 318 317 314
183 185 187 189 192 197 198 197 198 192 189 188 190 192 195 196 198 198 200 198 194 195 221 264 292 304 302 302 286 292 301 294 292 293 300 303 304 315 306 309 311 312 310
184 187 190 188 185 191 193 194 194 194 194 187 191 195 194 202 212 212 205 203 205 204 210 226 288 346 353 323 310 305 298 292 293 297 297 299 305 311 305 301 308 311 310
185 188 187 186 182 187 191 194 189 189 191 187 196 200 199 206 159 220 244 210 214 221 229 233 221 217 216 220 254 294 312 297 300 296 292 299 308 307 309 300 305 309 312
186 184 184 187 186 189 190 191 192 192 192 193 198 200 207 187 167 197 233 235 228 236 244 246 250 261 256 248 208 210 228 250 275 287 292 299 306 311 302 297 301 301 303
188 185 186 191 189 189 191 194 198 199 196 201 200 202 202 190 178 198 216 230 231 230 241 255 257 269 283 285 267 254 252 240 248 261 280 293 305 308 297 294 296 293 288
190 190 189 190 189 188 192 197 201 201 200 202 200 201 206 198 181 195 217 224 229 234 238 252 263 266 76 290 265 261 268 272 216 255 303 305 317 310 302 289 290 293 297
193 193 188 188 188 189 193 193 195 198 200 201 200 206 207 209 177 190 220 225 229 231 230 233 231 271 140 251 255 261 271 284 283 255 239 242 259 254 252 267 284 288 297
190 188 185 185 187 187 185 186 187 192 195 200 201 207 210 205 183 188 212 228 230 232 230 232 215 177 210 238 266 272 292 293 279 275 274 276 275 275 272 276 283 280 284
181 183 183 184 184 183 179 183 188 189 192 198 203 204 211 205 201 193 202 227 254 234 236 239 213 167 208 228 250 279 276 269 271 275 277 280 285 292 296 297 289 279 275
177 180 182 180 181 183 183 183 186 191 197 202 204 210 213 212 201 192 202 215 230 240 242 242 200 189 212 223 224 235 244 252 263 268 275 283 287 292 295 294 290 287 280
179 180 181 181 182 184 186 190 192 196 203 207 212 217 219 217 217 210 210 210 209 224 234 204 193 202 223 240 230 230 243 247 258 268 279 286 289 285 281 285 287 289 288
182 182 182 184 183 187 188 193 199 202 206 211 214 216 217 224 219 206 212 213 213 213 210 214 220 221 230 239 246 250 254 247 248 259 268 275 277 279 282 287 287 286 286
183 185 183 182 183 187 187 187 181 208 184 205 222 229 231 239 164 180 204 214 199 176 192 216 226 231 238 244 248 249 251 255 258 261 264 270 275 277 279 280 280 282 287
187 184 183 184 185 189 191 192 191 185 179 198 201 202 224 216 184 184 186 185 182 178 205 227 235 241 246 250 251 253 255 257 259 260 265 271 275 278 279 280 280 284 286
187 181 183 186 189 192 195 197 197 197 200 207 199 197 208 209 201 191 175 164 189 203 226 235 241 244 245 249 252 253 257 259 260 261 265 271 275 277 280 282 283 286 289
184 183 184 187 190 194 196 197 198 201 206 206 202 183 179 185 183 183 176 203 216 221 227 233 238 242 245 247 251 255 255 258 265 265 268 271 273 274 277 281 283 285 284
188 177 182 187 189 191 195 197 200 202 207 208 208 200 169 173 190 187 200 218 223 227 231 235 236 239 244 248 250 251 255 259 265 266 270 274 274 273 275 278 282 285 285
186 181 181 191 194 194 196 200 202 204 208 210 211 192 181 200 206 206 211 219 225 232 238 244 246 245 245 245 246 248 254 261 265 270 272 273 275 277 278 278 281 284 287
189 190 193 197 197 198 199 203 206 207 208 208 205 184 180 207 209 210 217 227 232 237 241 243 248 251 252 250 248 248 254 263 268 271 273 275 276 277 280 281 282 285 287
194 193 194 197 198 191 198 203 206 209 209 208 205 197 196 211 214 214 219 226 230 237 242 243 247 252 253 255 257 261 260 263 270 276 275 275 276 277 280 280 281 283 282
192 193 192 194 196 199 201 203 206 208 210 210 207 206 205 210 215 218 220 219 227 233 235 240 243 249 259 266 263 263 272 283 283 275 273 273 275 279 281 284 283 283 282
187 190 194 201 203 203 203 205 206 208 210 211 210 211 211 210 213 217 215 212 220 234 241 244 243 246 252 260 265 271 284 288 286 286 276 271 272 276 282 283 285 287 286
190 194 199 203 207 209 208 206 206 208 212 213 212 216 217 215 217 219 218 219 226 236 242 247 246 251 257 254 254 266 273 272 277 285 279 271 272 272 278 279 283 283 285
Height
1557 1559 1560 1561 1563 1564 1566 1567 1567 1568 1568 1569 1569 1569 1569 1568 1568 1568 1568 1568 1568 1568 1567 1567 1566 1565 1565 1564 1563 1563 1562 1562 1561 1560 1559 1557 1555 1553 1552 1550 1548 1546 1544
1555 1557 1558 1560 1561 1563 1564 1565 1566 1567 1567 1568 1568 1568 1568 1568 1568 1568 1568 1567 1567 1567 1567 1566 1566 1565 1564 1563 1563 1562 1561 1561 1560 1559 1558 1556 1554 1552 1551 1549 1547 1546 1544
1552 1554 1556 1558 1559 1561 1562 1563 1565 1566 1566 1567 1567 1567 1567 1567 1567 1567 1567 1567 1567 1566 1566 1566 1565 1565 1564 1563 1562 1562 1561 1559 1558 1558 1557 1555 1553 1551 1549 1548 1546 1544 1543
1550 1552 1554 1556 1557 1559 1560 1562 1563 1564 1565 1565 1566 1566 1566 1566 1566 1566 1566 1566 1566 1565 1565 1564 1564 1563 1563 1562 1561 1561 1560 1558 1557 1556 1555 1554 1552 1550 1548 1547 1545 1543 1541
1547 1549 1551 1554 1555 1557 1558 1560 1561 1562 1562 1563 1564 1564 1564 1564 1564 1564 1564 1564 1564 1564 1564 1563 1563 1562 1561 1561 1560 1559 1558 1557 1556 1555 1554 1552 1551 1548 1547 1545 1544 1542 1539
1544 1547 1549 1551 1553 1554 1556 1557 1559 1559 1560 1561 1562 1562 1562 1562 1562 1562 1562 1562 1563 1563 1562 1562 1561 1560 1560 1559 1558 1557 1556 1555 1554 1553 1552 1551 1549 1547 1545 1543 1542 1540 1538
1542 1544 1546 1548 1550 1552 1553 1555 1556 1557 1558 1559 1560 1560 1560 1560 1560 1560 1561 1560 1561 1561 1560 1560 1560 1559 1558 1557 1556 1555 1554 1552 1552 1551 1550 1548 1547 1545 1543 1541 1540 1538 1536
1539 1541 1543 1545 1547 1549 1550 1552 1553 1555 1556 1556 1557 1557 1557 1558 1558 1558 1558 1559 1559 1558 1558 1558 1557 1557 1556 1555 1554 1553 1552 1550 1549 1548 1547 1545 1544 1542 1540 1539 1537 1535 1533
1535 1537 1539 1541 1543 1545 1547 1549 1550 1552 1553 1554 1554 1555 1555 1555 1555 1556 1556 1556 1556 1556 1556 1555 1555 1554 1553 1552 1551 1551 1549 1548 1546 1545 1544 1542 1540 1539 1537 1536 1534 1533 1531
1532 1534 1536 1538 1540 1542 1544 1546 1547 1549 1550 1551 1552 1552 1552 1552 1552 1553 1553 1554 1554 1554 1553 1552 1552 1551 1550 1549 1549 1548 1547 1546 1544 1543 1541 1539 1538 1536 1534 1533 1532 1530 1528
1529 1531 1533 1535 1537 1539 1541 1542 1544 1546 1547 1548 1549 1549 1549 1549 1549 1550 1550 1551 1550 1550 1550 1550 1549 1548 1547 1547 1546 1545 1544 1543 1541 1540 1539 1537 1535 1534 1532 1531 1529 1527 1526
1526 1528 1530 1532 1534 1536 1537 1539 1541 1542 1544 1545 1545 1545 1546 1546 1546 1547 1547 1547 1548 1547 1547 1547 1546 1545 1545 1544 1543 1541 1540 1539 1538 1537 1536 1534 1533 1531 1529 1528 1526 1524 1522
1523 1524 1526 1528 1530 1532 1534 1535 1537 1539 1540 1541 1542 1542 1542 1543 1543 1543 1543 1543 1544 1544 1544 1543 1543 1542 1541 1540 1539 1538 1537 1536 1535 1534 1532 1531 1530 1528 1526 1524 1522 1520 1518
1519 1521 1523 1525 1527 1528 1530 1532 1533 1534 1536 1537 1538 1538 1538 1539 1539 1539 1539 1540 1540 1540 1540 1539 1539 1538 1538 1537 1536 1534 1533 1532 1531 1530 1529 1528 1526 1524 1522 1520 1518 1516 1514
1516 1518 1520 1521 1523 1524 1526 1528 1529 1530 1532 1533 1533 1534 1535 1535 1536 1536 1536 1536 1536 1536 1536 1535 1535 1535 1534 1533 1532 1531 1530 1529 1527 1526 1525 1524 1522 1521 1519 1517 1515 1513 1511
1512 1514 1516 1517 1519 1520 1522 1524 1525 1527 1528 1529 1530 1531 1531 1532 1532 1532 1532 1532 1532 1532 1532 1531 1531 1530 1530 1529 1528 1527 1526 1525 1524 1522 1521 1520 1519 1517 1515 1513 1511 1510 1508
1509 1511 1512 1513 1515 1516 1518 1519 1520 1522 1524 1525 1526 1527 1527 1528 1528 1528 1528 1528 1528 1527 1527 1527 1527 1526 1526 1525 1524 1524 1523 1522 1520 1519 1517 1516 1515 1513 1511 1510 1508 1506 1504
1506 1507 1508 1510 1511 1513 1514 1516 1517 1518 1519 1520 1521 1522 1523 1523 1524 1524 1524 1523 1523 1523 1523 1523 1523 1523 1522 1521 1520 1519 1518 1517 1516 1515 1514 1512 1511 1509 1507 1506 1504 1502 1500
1502 1503 1505 1506 1508 1509 1511 1512 1514 1515 1516 1516 1517 1518 1519 1519 1520 1520 1520 1519 1519 1519 1519 1519 1519 1518 1518 1517 1516 1515 1514 1513 1512 1511 1509 1508 1507 1505 1503 1501 1500 1497 1495
1499 1500 1501 1503 1504 1506 1507 1509 1510 1511 1512 1513 1513 1514 1515 1515 1515 1515 1516 1516 1516 1515 1515 1515 1515 1514 1514 1513 1512 1511 1510 1509 1508 1506 1505 1504 1502 1500 1499 1497 1495 1493 1491
1495 1497 1498 1500 1501 1502 1503 1505 1506 1507 1508 1509 1510 1510 1511 1511 1512 1512 1512 1512 1512 1512 1511 1511 1510 1510 1509 1508 1507 1507 1506 1505 1503 1502 1501 1499 1498 1496 1494 1492 1490 1488 1486
1492 1493 1494 1496 1497 1498 1499 1501 1502 1503 1504 1505 1505 1506 1507 1507 1508 1508 1508 1508 1508 1508 1507 1507 1506 1506 1505 1504 1503 1502 1501 1500 1499 1497 1496 1495 1493 1491 1490 1488 1486 1484 1482
1488 1489 1491 1492 1493 1494 1495 1496 1498 1499 1499 1500 1501 1502 1502 1503 1503 1504 1504 1503 1503 1503 1503 1503 1502 1501 1501 1500 1499 1498 1497 1495 1494 1493 1491 1490 1488 1487 1485 1483 1481 1479 1477
1484 1486 1487 1488 1489 1490 1491 1492 1493 1494 1495 1496 1497 1498 1498 1499 1499 1499 1500 1499 1499 1499 1499 1498 1497 1497 1496 1495 1494 1493 1492 1491 1489 1488 1487 1485 1483 1482 1480 1477 1475 1473 1472
1481 1482 1483 1484 1485 1486 1487 1488 1489 1490 1491 1492 1492 1493 1494 1494 1495 1495 1495 1495 1495 1494 1494 1493 1493 1492 1491 1490 1489 1488 1487 1486 1484 1483 1481 1480 1478 1476 1475 1472 1470 1468 1466
1477 1478 1479 1480 1481 1482 1483 1484 1485 1486 1486 1487 1488 1489 1489 1489 1490 1490 1490 1490 1490 1489 1489 1488 1488 1487 1486 1485 1484 1483 1482 1480 1479 1478 1476 1475 1473 1471 1469 1467 1465 1463 1461